This is the latest recevied weather packets stored in our database for station/object IU1JVO-13. If no packets are shown the sender has not sent any weather packets the latest 1 day(s).
| Time | Temp. | Humidity | Pressure | Rain* | Wind** | Luminosity | Snow |
|---|---|---|---|---|---|---|---|
| 1778053949 | 11.11° C | 90% | 1009.8 hPa | 0.51 mm | - | - | - |
| 1778053349 | 11.11° C | 89% | 1009.8 hPa | 0.51 mm | - | - | - |
| 1778052751 | 11.11° C | 89% | 1009.5 hPa | 0.25 mm | - | - | - |
| 1778052149 | 11.11° C | 89% | 1009.6 hPa | 0 mm | - | - | - |
| 1778050349 | 11.11° C | 93% | 1009.5 hPa | 0 mm | - | - | - |
| 1778049749 | 10.56° C | 93% | 1009.4 hPa | 0 mm | - | - | - |
| 1778049150 | 10.56° C | 93% | 1009.6 hPa | 0.25 mm | - | - | - |
| 1778048548 | 10.56° C | 92% | 1009.7 hPa | 0.76 mm | - | - | - |
| 1778047951 | 10° C | 93% | 1009.6 hPa | 1.52 mm | - | - | - |
| 1778047347 | 10° C | 93% | 1009.7 hPa | 2.54 mm | - | - | - |
| 1778045547 | 10° C | 92% | 1009.7 hPa | 4.83 mm | - | - | - |
| 1778044348 | 10° C | 92% | 1009.6 hPa | 5.08 mm | - | - | - |
| 1778043747 | 10° C | 93% | 1009.5 hPa | 4.32 mm | - | - | - |
| 1778043147 | 10.56° C | 93% | 1009.8 hPa | 3.81 mm | - | - | - |
| 1778042612 | 10.56° C | 92% | 1009.7 hPa | 3.3 mm | - | - | - |
| 1778041948 | 10.56° C | 92% | 1009.7 hPa | 2.29 mm | - | - | - |
| 1778041408 | 10.56° C | 93% | 1009.7 hPa | 1.27 mm | - | - | - |
| 1778040747 | 10° C | 93% | 1009.8 hPa | 0.51 mm | - | - | - |
| 1778040148 | 10° C | 93% | 1009.8 hPa | 0.51 mm | - | - | - |
| 1778039550 | 10° C | 93% | 1009.8 hPa | 0.51 mm | - | - | - |
| 1778038947 | 10° C | 93% | 1009.9 hPa | 0.51 mm | - | - | - |
| 1778038347 | 10° C | 93% | 1010 hPa | 0.51 mm | - | - | - |
| 1778037747 | 10° C | 93% | 1010.1 hPa | 0.51 mm | - | - | - |
| 1778037147 | 10° C | 93% | 1010.4 hPa | 0.51 mm | - | - | - |
| 1778035946 | 10.56° C | 93% | 1010.8 hPa | 0 mm | - | - | - |
* Rain latest hour (hover to see other rain measurements)
** Current wind speed in m/s (hover to see current wind gust speed)